Laredo, TX

4:15 AM CDT on June 26, 2017 (GMT -0500)
Laredo International

Weather History for KLRD - January, 2013

Change the Weather History Date:

Thursday, January 3, 2013

  Actual Average Record
Temperature  
Mean Temperature 46 °F 56 °F  
Max Temperature 48 °F 66 °F 93 °F (1971)
Min Temperature 43 °F 45 °F 20 °F (1911)
Degree Days  
Heating Degree Days 19 10  
Month to date heating degree days 41 30  
Since 1 July heating degree days 243 420  
Cooling Degree Days 0 1  
Month to date cooling degree days 0 3  
Year to date cooling degree days 0 3  
Moisture  
Dew Point 33 °F    
Average Humidity 63    
Maximum Humidity 82    
Minimum Humidity 47    
Precipitation  
Precipitation 0.00 in 0.03 in 2.80 in (1915)
Month to date precipitation 0.02 0.09  
Year to date precipitation 0.02 0.09  
Sea Level Pressure  
Sea Level Pressure 30.38 in    
Wind  
Wind Speed 7 mph (NNE)    
Max Wind Speed 15 mph    
Max Gust Speed 17 mph    
Visibility 10 miles    
Events      
T = Trace of Precipitation, MM = Missing Value Source: NWS Daily Summary

Daily Weather History Graph

Daily Weather History Graph

Search for Another Location

Airport or City:

Trip Planner

Search our weather history database for the weather conditions in past years. The results will help you decide how hot, cold, wet, or windy it might be!

Date:

Astronomy

Jan. 03, 2013 Rise Set
Actual Time 7:28 AM CST 5:56 PM CST
Civil Twilight 7:03 AM CST 6:21 PM CST
Nautical Twilight 6:34 AM CST 6:50 PM CST
Astronomical Twilight 6:05 AM CST 7:19 PM CST
Moon 11:55 PM CST (1/3) 11:15 AM CST (1/3)
Length of Visible Light 11h 18m
Length of Day
10h 27m
Waning Gibbous, 65% of the Moon is Illuminated
Jan 3
Waning Gibbous
Jan 4
Last Quarter
Jan 11
New
Jan 18
First Quarter
Jan 26
Full

Hourly Weather History & Observations

Time (CST) Temp. Windchill Dew Point Humidity Pressure Visibility Wind Dir Wind Speed Gust Speed Precip Events Conditions
12:56 AM 43.0 °F - 36.9 °F 79% 30.31 in 10.0 mi Calm Calm - N/A   Overcast
1:56 AM 43.0 °F - 36.0 °F 76% 30.32 in 10.0 mi Calm Calm - N/A   Overcast
2:56 AM 43.0 °F 40.3 °F 36.0 °F 76% 30.31 in 10.0 mi NNE 4.6 mph - N/A   Overcast
3:56 AM 43.0 °F 39.5 °F 36.0 °F 76% 30.32 in 10.0 mi NNE 5.8 mph - N/A   Mostly Cloudy
4:56 AM 43.9 °F 39.9 °F 34.9 °F 71% 30.33 in 10.0 mi NNW 6.9 mph - N/A   Overcast
5:56 AM 43.9 °F 40.5 °F 36.9 °F 76% 30.34 in 10.0 mi North 5.8 mph - N/A   Overcast
6:56 AM 44.6 °F 41.4 °F 37.4 °F 76% 30.37 in 9.0 mi North 5.8 mph - N/A   Mostly Cloudy
7:56 AM 43.9 °F 39.9 °F 36.9 °F 76% 30.38 in 9.0 mi NNE 6.9 mph - N/A   Overcast
8:56 AM 43.9 °F 39.3 °F 34.9 °F 71% 30.41 in 10.0 mi North 8.1 mph - N/A   Overcast
9:56 AM 43.9 °F 37.9 °F 32.9 °F 65% 30.43 in 10.0 mi NNE 11.5 mph - N/A   Overcast
10:56 AM 45.0 °F 38.5 °F 32.0 °F 60% 30.43 in 10.0 mi North 13.8 mph - N/A   Mostly Cloudy
11:56 AM 45.9 °F 40.8 °F 31.1 °F 56% 30.42 in 10.0 mi NE 10.4 mph - N/A   Overcast
12:56 PM 45.9 °F 39.7 °F 31.1 °F 56% 30.39 in 10.0 mi NNE 13.8 mph - N/A   Overcast
1:56 PM 46.9 °F - 30.0 °F 52% 30.38 in 10.0 mi NE 10.4 mph - N/A   Overcast
2:56 PM 47.8 °F - 30.0 °F 50% 30.37 in 10.0 mi NE 12.7 mph - N/A   Mostly Cloudy
3:56 PM 47.8 °F - 30.0 °F 50% 30.37 in 10.0 mi NE 8.1 mph - N/A   Mostly Cloudy
4:56 PM 47.8 °F - 28.0 °F 46% 30.39 in 10.0 mi NE 10.4 mph - N/A   Overcast
5:56 PM 46.9 °F - 29.1 °F 50% 30.40 in 10.0 mi NE 6.9 mph - N/A   Mostly Cloudy
6:56 PM 46.9 °F - 30.0 °F 52% 30.41 in 10.0 mi NE 5.8 mph - N/A   Mostly Cloudy
7:56 PM 46.9 °F - 31.1 °F 54% 30.40 in 10.0 mi NE 5.8 mph - N/A   Scattered Clouds
8:56 PM 45.9 °F 43.6 °F 32.0 °F 58% 30.41 in 10.0 mi NNE 4.6 mph - N/A   Overcast
9:56 PM 45.9 °F 44.6 °F 32.0 °F 58% 30.41 in 10.0 mi NNE 3.5 mph - N/A   Overcast
10:56 PM 45.9 °F 43.6 °F 32.9 °F 61% 30.41 in 10.0 mi North 4.6 mph - N/A   Overcast
11:56 PM 45.9 °F 42.9 °F 32.9 °F 61% 30.41 in 10.0 mi North 5.8 mph - N/A   Overcast